Regional Weather Roundup
Issued by NWS

Home | Current Version | Previous Version | Graphics & Text | Print | Product List | Glossary On
Versions: 1 2 3 4 5 6 7 8 9 10 11 12 13 14 15 16 17 18 19 20 21 22 23 24 25 26 27 28 29 30 31 32 33 34 35 36 37 38 39 40 41 42 43 44 45 46 47 48 49 50
103
ASUS45 KCYS 241210
RWRWY

WYOMING REGIONAL WEATHER ROUNDUP
NATIONAL WEATHER SERVICE CHEYENNE WY
500 AM MST FRI FEB 24 2017

NOTE:  "FAIR" INDICATES FEW OR NO CLOUDS BELOW 12,000 FEET
WITH NO SIGNIFICANT WEATHER AND/OR OBSTRUCTIONS TO VISIBILITY.

WYZ001-241300-
YELLOWSTONE NATIONAL PARK

CITY           SKY/WX    TMP DP  RH WIND       PRES   REMARKS
LK YELLOWSTONE   N/A      3   1  91 CALM      29.77R
6HR MIN TEMP:   1; 6HR MAX TEMP:   8;

W YELLOWSTONE  NOT AVBL

$$
WYZ002>013-054>058-071-098>099-241300-
NORTHERN WYOMING

CITY           SKY/WX    TMP DP  RH WIND       PRES   REMARKS
JACKSON        CLOUDY    16  16 100 S3        29.81R
CODY           FAIR      16  12  84 S5        29.88R WCI   9
GREYBULL       CLOUDY    22  19  89 CALM      29.92R
6HR MIN TEMP:  21; 6HR MAX TEMP:  26; 6HR PCP: TRACE;

WORLAND        CLOUDY    19  18  95 S3        29.91R FOG
6HR MIN TEMP:  18; 6HR MAX TEMP:  24; 6HR PCP:  0.02;

SHERIDAN       CLOUDY    19  15  84 SE13      29.93R WCI   6
6HR MIN TEMP:  18; 6HR MAX TEMP:  24; 6HR PCP: TRACE;

BUFFALO        LGT SNOW  20  15  81 S5        29.90R WCI  13
6HR MIN TEMP:  19; 6HR MAX TEMP:  22; 6HR PCP:  0.02;

GILLETTE       CLOUDY    20  17  88 SE6       29.93R WCI  12
6HR MIN TEMP:  20; 6HR MAX TEMP:  24; 6HR PCP:  0.02;

HULETT         FLURRIES  21  19  93 MISG      29.96R
NEWCASTLE      LGT SNOW  21  21 100 S3        29.94S

$$
WYZ014>020-022>026-101>103-241300-
CENTRAL WYOMING

CITY           SKY/WX    TMP DP  RH WIND       PRES   REMARKS
BIG PINEY      CLOUDY    12   7  80 NW5       29.79R WCI   4
6HR MIN TEMP:  11; 6HR MAX TEMP:  17; 6HR PCP: TRACE;

PINEDALE       LGT SNOW  12  12 100 SE3       29.79S
DUBOIS         LGT SNOW  10   7  85 W8        29.77R WCI  -1
LANDER         LGT SNOW  17  15  92 SW3       29.85S FOG
6HR MIN TEMP:  17; 6HR MAX TEMP:  19; 6HR PCP:  0.08;

RIVERTON       LGT SNOW  16  14  92 SE3       29.86S FOG
6HR MIN TEMP:  16; 6HR MAX TEMP:  19; 6HR PCP:  0.06;

CASPER         MOCLDY    13  10  88 NE13      29.86S WCI  -2
6HR MIN TEMP:  11; 6HR MAX TEMP:  16;

DOUGLAS        CLOUDY    11   8  88 CALM      29.90R FOG
6HR MIN TEMP:   8; 6HR MAX TEMP:  17; 6HR PCP: TRACE;


$$
WYZ021-027>030-104>119-241300-
SOUTHERN WYOMING

CITY           SKY/WX    TMP DP  RH WIND       PRES   REMARKS
EVANSTON       LGT SNOW  13  10  88 SW5       29.81R FOG     WCI   5
6HR MIN TEMP:  14; 6HR MAX TEMP:  17; 6HR PCP: TRACE;

FORT BRIDGER   LGT SNOW  14  14  99 W10       29.83R WCI   2
ROCK SPRINGS   MOCLDY    10   6  84 SW5       29.80R WCI   2
6HR MIN TEMP:   9; 6HR MAX TEMP:  18; 6HR PCP: TRACE;

DIXON          LGT SNOW  15  12  86 SW9       29.80R WCI   4
RAWLINS        LGT SNOW  12   7  80 NE18      29.74R WCI  -6
6HR MIN TEMP:  12; 6HR MAX TEMP:  13; 6HR PCP: TRACE;

SARATOGA       LGT SNOW  14  12  92 E5        29.72R WCI   6
LARAMIE        CLOUDY     6   3  87 CALM      29.74R
6HR MIN TEMP:   4; 6HR MAX TEMP:  11; 6HR PCP: TRACE;

CHEYENNE       LGT SNOW  13   9  84 N8        29.81S FOG     WCI   2
6HR MIN TEMP:  11; 6HR MAX TEMP:  14; 6HR PCP:  0.02;

TORRINGTON     CLOUDY    19  14  81 VRB3      29.92R
6HR MIN TEMP:  19; 6HR MAX TEMP:  22; 6HR PCP: TRACE;

PINE BLUFFS    CLOUDY    18  16  93 N9        29.87R WCI   6

$$




USA.gov is the U.S. government's official web portal to all federal, state and local government web resources and services.